M I D A S
Marine Information and Data Acquisition System
Tripno 741 of the Zeeleeuw from 2004-06-29 06:20:40 to 2004-06-29 11:54:46
Back to CruiseResearch ActivitiesStationsMapUnderway DataData graphs

EquipmentUnitsComments
TimeDGPSUTC
LatitudeDGPSDM.mWGS84
LongitudeDGPSDM.mWGS84
SpeedMeteo Stationm/sRelative wind speed
DirectionMeteo StationdegRelative wind direction
TemperatureMeteo Stationdeg CelciusAir temperature
PressureMeteo StationPaAtmospheric pressure
HumidityMeteo Station%Relative humidity
Missing or incorrect values are displayed as -999
Metereological data collected by the RV Zeeleeuw from 2004-06-29 06:20:40 to 2004-06-29 11:54:46
                                                                                    Next 1000 lines
Time Latitude Longitude Speed Direction Temperature Pressure Humidity
2004-06-29 06:20:46 51°13.597 2°56.098 4.1 166 16 102510 68
2004-06-29 06:20:50 51°13.597 2°56.097 3.4 152 16 102510 68
2004-06-29 06:20:55 51°13.597 2°56.097 3.2 141 16 102510 68
2004-06-29 06:21:01 51°13.597 2°56.097 3.9 166 16 102500 68
2004-06-29 06:21:06 51°13.596 2°56.097 3.9 143 16 102500 68
2004-06-29 06:21:10 51°13.596 2°56.097 3.2 138 16 102510 68
2004-06-29 06:21:16 51°13.596 2°56.096 3.2 148 16 102510 68
2004-06-29 06:21:21 51°13.596 2°56.094 4.8 148 16 102510 68
2004-06-29 06:21:26 51°13.597 2°56.092 3.5 157 16 102510 68
2004-06-29 06:21:30 51°13.597 2°56.089 3.9 168 16 102510 68
2004-06-29 06:21:37 51°13.599 2°56.084 4.2 166 16 102510 68
2004-06-29 06:21:42 51°13.599 2°56.079 2.9 172 16 102510 67
2004-06-29 06:21:46 51°13.6 2°56.076 5.7 178 16 102510 67
2004-06-29 06:21:52 51°13.602 2°56.069 5.9 168 16 102500 67
2004-06-29 06:21:57 51°13.604 2°56.064 4.4 178 16 102500 67
2004-06-29 06:22:01 51°13.606 2°56.059 6 170 16.1 102510 68
2004-06-29 06:22:06 51°13.608 2°56.052 6.6 162 16.1 102510 68
2004-06-29 06:22:12 51°13.611 2°56.044 6.8 157 16.1 102510 68
2004-06-29 06:22:17 51°13.613 2°56.037 5.6 166 16.1 102510 68
2004-06-29 06:22:22 51°13.616 2°56.03 6.9 156 16.1 102510 68
2004-06-29 06:22:27 51°13.619 2°56.023 7.3 157 16.1 102510 68
2004-06-29 06:22:32 51°13.622 2°56.015 6.7 155 16.1 102510 68
2004-06-29 06:22:37 51°13.625 2°56.007 8.2 157 16.1 102510 68
2004-06-29 06:22:42 51°13.629 2°55.999 6.6 165 16.1 102510 67
2004-06-29 06:22:47 51°13.632 2°55.991 6.7 155 16.1 102510 67
2004-06-29 06:22:52 51°13.636 2°55.983 5.7 156 16.1 102510 67
2004-06-29 06:22:57 51°13.639 2°55.975 5.3 161 16.1 102510 67
2004-06-29 06:23:02 51°13.643 2°55.966 5.7 157 16 102510 67
2004-06-29 06:23:06 51°13.646 2°55.959 5.7 169 16 102510 67
2004-06-29 06:23:12 51°13.651 2°55.949 5 195 16 102510 67
2004-06-29 06:23:17 51°13.655 2°55.94 6.1 164 16 102510 67
2004-06-29 06:23:22 51°13.659 2°55.931 5.9 173 16 102510 67
2004-06-29 06:23:26 51°13.662 2°55.924 6.7 165 16 102510 67
2004-06-29 06:23:32 51°13.666 2°55.914 6.4 158 16 102510 67
2004-06-29 06:23:37 51°13.67 2°55.905 6.3 163 16 102510 68
2004-06-29 06:23:42 51°13.674 2°55.897 4.6 174 16 102510 68
2004-06-29 06:23:47 51°13.678 2°55.888 6.5 158 16 102510 68
2004-06-29 06:23:52 51°13.682 2°55.879 6.8 147 16 102510 67
2004-06-29 06:23:57 51°13.686 2°55.871 5.4 143 16 102510 67
2004-06-29 06:24:02 51°13.691 2°55.862 4.7 145 16 102510 68
2004-06-29 06:24:06 51°13.694 2°55.855 5.5 166 16 102510 68
2004-06-29 06:24:12 51°13.699 2°55.845 6.4 166 16.1 102510 68
2004-06-29 06:24:17 51°13.704 2°55.836 5.8 152 16.1 102510 68
2004-06-29 06:24:22 51°13.709 2°55.828 5.5 163 16.1 102510 68
2004-06-29 06:24:26 51°13.713 2°55.821 5.9 152 16.1 102510 68
2004-06-29 06:24:32 51°13.719 2°55.81 5.6 149 16.1 102510 68
2004-06-29 06:24:37 51°13.723 2°55.801 5.7 152 16.1 102510 68
2004-06-29 06:24:42 51°13.728 2°55.792 5.9 160 16.1 102510 68
2004-06-29 06:24:46 51°13.732 2°55.785 6.4 165 16.1 102510 68
2004-06-29 06:24:52 51°13.738 2°55.775 7 160 16.1 102510 68
2004-06-29 06:24:57 51°13.743 2°55.766 6 153 16.1 102510 68
2004-06-29 06:25:02 51°13.748 2°55.757 6.7 152 16.1 102510 68
2004-06-29 06:25:06 51°13.752 2°55.75 6.3 152 16.1 102510 68
2004-06-29 06:25:12 51°13.757 2°55.739 5.1 154 16.1 102510 68
2004-06-29 06:25:17 51°13.762 2°55.73 3.6 177 16.1 102510 68
2004-06-29 06:25:22 51°13.767 2°55.722 4.9 167 16.1 102520 68
2004-06-29 06:25:26 51°13.771 2°55.715 5.2 172 16.1 102520 68
2004-06-29 06:25:32 51°13.778 2°55.705 5.4 171 16.1 102510 68
2004-06-29 06:25:37 51°13.783 2°55.697 4.8 159 16.1 102510 68
2004-06-29 06:25:42 51°13.789 2°55.689 3.5 208 16.1 102520 68
2004-06-29 06:25:47 51°13.794 2°55.682 3 180 16.1 102520 68
2004-06-29 06:25:52 51°13.8 2°55.674 3.9 168 16.1 102510 68
2004-06-29 06:25:57 51°13.807 2°55.667 4.8 158 16.1 102510 68
2004-06-29 06:26:02 51°13.813 2°55.661 6.2 164 16.1 102510 68
2004-06-29 06:26:06 51°13.818 2°55.656 7.9 162 16.1 102510 68
2004-06-29 06:26:12 51°13.826 2°55.649 5.2 142 16.2 102510 68
2004-06-29 06:26:17 51°13.833 2°55.643 4.8 158 16.2 102510 68
2004-06-29 06:26:22 51°13.84 2°55.638 4.2 161 16.2 102510 68
2004-06-29 06:26:27 51°13.847 2°55.633 5 158 16.2 102510 68
2004-06-29 06:26:32 51°13.853 2°55.629 6.8 148 16.2 102510 67
2004-06-29 06:26:37 51°13.86 2°55.625 6.7 128 16.2 102510 67
2004-06-29 06:26:42 51°13.867 2°55.622 6 115 16.2 102520 67
2004-06-29 06:26:47 51°13.874 2°55.619 6.5 115 16.2 102520 67
2004-06-29 06:26:52 51°13.881 2°55.617 5.7 108 16.2 102510 67
2004-06-29 06:26:57 51°13.889 2°55.616 3.8 135 16.2 102510 67
2004-06-29 06:27:02 51°13.896 2°55.616 4.5 148 16.2 102510 67
2004-06-29 06:27:06 51°13.902 2°55.616 4.7 143 16.2 102510 67
2004-06-29 06:27:12 51°13.91 2°55.616 4.2 141 16.2 102510 67
2004-06-29 06:27:17 51°13.917 2°55.617 3.1 145 16.2 102510 67
2004-06-29 06:27:22 51°13.925 2°55.618 4.4 137 16.2 102510 67
2004-06-29 06:27:27 51°13.932 2°55.62 3.6 125 16.2 102510 67
2004-06-29 06:27:32 51°13.939 2°55.622 4.9 163 16.2 102510 67
2004-06-29 06:27:37 51°13.946 2°55.625 4.8 127 16.2 102510 67
2004-06-29 06:27:42 51°13.952 2°55.627 5.3 125 16.2 102510 68
2004-06-29 06:27:46 51°13.956 2°55.63 4 115 16.2 102510 68
2004-06-29 06:27:52 51°13.962 2°55.633 3.7 102 16.2 102510 68
2004-06-29 06:27:56 51°13.965 2°55.634 3.8 85 16.2 102510 68
2004-06-29 06:28:01 51°13.966 2°55.635 3.4 65 16.2 102510 67
2004-06-29 06:28:06 51°13.966 2°55.634 4.4 43 16.2 102510 67
2004-06-29 06:28:09 51°13.966 2°55.633 3.1 23 16.2 102510 67
2004-06-29 06:28:16 51°13.964 2°55.628 5.9 19 16.2 102510 67
2004-06-29 06:28:21 51°13.963 2°55.622 4.9 2 16.2 102510 67
2004-06-29 06:28:26 51°13.962 2°55.614 5.4 10 16.2 102510 67
2004-06-29 06:28:30 51°13.961 2°55.608 5.4 342 16.2 102510 67
2004-06-29 06:28:37 51°13.962 2°55.595 5.4 330 16.2 102510 67
2004-06-29 06:28:41 51°13.963 2°55.586 4.9 353 16.2 102510 68
2004-06-29 06:28:46 51°13.965 2°55.576 6.2 335 16.2 102510 68
2004-06-29 06:28:49 51°13.967 2°55.57 5 323 16.2 102510 68
2004-06-29 06:28:56 51°13.973 2°55.556 4.9 344 16.2 102510 68
2004-06-29 06:29:01 51°13.979 2°55.547 4.9 349 16.2 102510 68
2004-06-29 06:29:05 51°13.983 2°55.539 4.8 340 16.2 102510 68
2004-06-29 06:29:12 51°13.993 2°55.525 5.8 339 16.2 102500 68
2004-06-29 06:29:16 51°14 2°55.517 7 2 16.2 102500 68
2004-06-29 06:29:21 51°14.008 2°55.507 7.8 341 16.2 102500 68
2004-06-29 06:29:26 51°14.017 2°55.497 7.2 320 16.2 102500 68
2004-06-29 06:29:32 51°14.028 2°55.487 5.9 337 16.2 102510 68
2004-06-29 06:29:36 51°14.036 2°55.48 7 332 16.2 102510 68
2004-06-29 06:29:41 51°14.047 2°55.471 6.8 338 16.2 102500 68
2004-06-29 06:29:46 51°14.057 2°55.463 8 336 16.2 102500 68
2004-06-29 06:29:50 51°14.065 2°55.457 6.5 348 16.2 102500 68
2004-06-29 06:29:56 51°14.078 2°55.448 6.3 324 16.2 102500 68
2004-06-29 06:30:01 51°14.088 2°55.441 3.9 320 16.2 102510 68
2004-06-29 06:30:06 51°14.099 2°55.434 5.3 333 16.2 102510 68
2004-06-29 06:30:10 51°14.107 2°55.428 6.8 345 16.2 102510 68
2004-06-29 06:30:16 51°14.12 2°55.418 8.3 338 16.2 102510 68
2004-06-29 06:30:21 51°14.132 2°55.41 8.4 335 16.2 102500 68
2004-06-29 06:30:26 51°14.143 2°55.401 8.6 332 16.2 102500 68
2004-06-29 06:30:31 51°14.155 2°55.391 7.8 335 16.2 102510 68
2004-06-29 06:30:36 51°14.167 2°55.381 8.9 322 16.2 102510 68
2004-06-29 06:30:42 51°14.181 2°55.367 8.5 331 16.2 102510 68
2004-06-29 06:30:47 51°14.192 2°55.353 10.9 330 16.2 102510 68
2004-06-29 06:30:52 51°14.204 2°55.339 12.3 330 16.2 102500 68
2004-06-29 06:30:57 51°14.215 2°55.324 12.1 329 16.2 102500 68
2004-06-29 06:31:02 51°14.226 2°55.308 11.4 333 16.2 102500 68
2004-06-29 06:31:07 51°14.238 2°55.293 11.7 338 16.2 102500 68
2004-06-29 06:31:12 51°14.249 2°55.277 12.2 338 16.2 102500 68
2004-06-29 06:31:17 51°14.259 2°55.26 13.2 333 16.2 102500 68
2004-06-29 06:31:22 51°14.27 2°55.242 10.7 346 16.2 102500 68
2004-06-29 06:31:27 51°14.28 2°55.224 10 342 16.2 102500 68
2004-06-29 06:31:32 51°14.29 2°55.205 10.7 350 16.2 102490 69
2004-06-29 06:31:37 51°14.3 2°55.187 10.8 338 16.2 102490 69
2004-06-29 06:31:42 51°14.31 2°55.168 13.1 340 16.2 102490 69
2004-06-29 06:31:47 51°14.321 2°55.149 13.3 340 16.2 102490 69
2004-06-29 06:31:52 51°14.332 2°55.13 14 342 16.2 102490 69
2004-06-29 06:31:57 51°14.343 2°55.111 14 340 16.2 102490 69
2004-06-29 06:32:02 51°14.355 2°55.092 12.3 338 16.2 102490 69
2004-06-29 06:32:07 51°14.367 2°55.074 12.6 337 16.2 102490 69
2004-06-29 06:32:11 51°14.378 2°55.06 12.9 338 16.1 102490 68
2004-06-29 06:32:17 51°14.394 2°55.039 14 337 16.1 102490 68
2004-06-29 06:32:22 51°14.408 2°55.021 13.6 339 16.1 102480 68
2004-06-29 06:32:27 51°14.422 2°55.003 12.9 339 16.1 102480 68
2004-06-29 06:32:32 51°14.436 2°54.984 13.7 334 16.1 102480 68
2004-06-29 06:32:37 51°14.45 2°54.966 12.8 334 16.1 102480 68
2004-06-29 06:32:42 51°14.465 2°54.949 13.4 336 16.1 102480 69
2004-06-29 06:32:47 51°14.48 2°54.932 12.4 330 16.1 102480 69
2004-06-29 06:32:52 51°14.495 2°54.916 13.6 334 16.1 102480 69
2004-06-29 06:32:57 51°14.511 2°54.902 13.8 330 16.1 102480 69
2004-06-29 06:33:02 51°14.527 2°54.887 13 331 16.1 102470 69
2004-06-29 06:33:06 51°14.539 2°54.875 13.3 326 16.1 102470 69
2004-06-29 06:33:13 51°14.561 2°54.854 12.2 328 16.1 102480 69
2004-06-29 06:33:17 51°14.574 2°54.842 13.4 329 16.1 102480 69
2004-06-29 06:33:22 51°14.59 2°54.828 12.7 325 16.1 102480 69
2004-06-29 06:33:27 51°14.607 2°54.815 11.7 327 16.1 102480 69
2004-06-29 06:33:30 51°14.617 2°54.807 13.3 325 16.1 102470 69
2004-06-29 06:33:37 51°14.64 2°54.788 11.5 327 16.1 102470 69
2004-06-29 06:33:42 51°14.657 2°54.776 12.5 329 16 102470 69
2004-06-29 06:33:47 51°14.674 2°54.764 13.6 329 16 102470 69
2004-06-29 06:33:51 51°14.688 2°54.755 13.3 329 16.1 102480 70
2004-06-29 06:34:03 51°14.728 2°54.723 14.3 334 16.1 102480 70
2004-06-29 06:34:07 51°14.741 2°54.713 14.2 333 16 102470 70
2004-06-29 06:34:13 51°14.76 2°54.696 13.7 332 16 102470 70
2004-06-29 06:34:17 51°14.774 2°54.685 13 331 16 102480 70
2004-06-29 06:34:23 51°14.793 2°54.668 13.6 333 16 102480 70
2004-06-29 06:34:27 51°14.806 2°54.657 13.8 334 16 102480 69
2004-06-29 06:34:32 51°14.823 2°54.643 14.7 334 16 102480 69
2004-06-29 06:34:38 51°14.842 2°54.626 14.8 336 16 102480 69
2004-06-29 06:34:43 51°14.858 2°54.612 15.1 332 16 102480 69
2004-06-29 06:34:47 51°14.871 2°54.601 14.4 333 16 102470 69
2004-06-29 06:34:53 51°14.891 2°54.584 14.7 329 16 102470 69
2004-06-29 06:34:58 51°14.907 2°54.57 14 333 16 102480 69
2004-06-29 06:35:03 51°14.924 2°54.557 13.7 330 16 102480 69
2004-06-29 06:35:08 51°14.94 2°54.543 12.8 328 16 102470 69
2004-06-29 06:35:13 51°14.956 2°54.529 14.4 331 16 102470 69
2004-06-29 06:35:18 51°14.972 2°54.516 14.3 327 16 102480 69
2004-06-29 06:35:23 51°14.989 2°54.502 13.8 324 16 102480 69
2004-06-29 06:35:28 51°15.005 2°54.489 13.4 329 16 102470 69
2004-06-29 06:35:32 51°15.018 2°54.478 14.3 325 16 102470 69
2004-06-29 06:35:38 51°15.037 2°54.461 13.5 325 16 102480 69
2004-06-29 06:35:43 51°15.054 2°54.448 13.7 330 16 102480 69
2004-06-29 06:35:47 51°15.067 2°54.437 13.8 327 15.9 102470 69
2004-06-29 06:35:53 51°15.086 2°54.421 13.8 327 15.9 102470 69
2004-06-29 06:35:58 51°15.102 2°54.407 12.3 330 15.9 102480 69
2004-06-29 06:36:03 51°15.119 2°54.394 12.2 333 15.9 102480 69
2004-06-29 06:36:06 51°15.129 2°54.385 14.7 330 15.9 102470 69
2004-06-29 06:36:13 51°15.151 2°54.366 15.2 331 15.9 102470 69
2004-06-29 06:36:18 51°15.168 2°54.353 14.5 329 15.9 102470 69
2004-06-29 06:36:23 51°15.184 2°54.339 15.4 330 15.9 102470 69
2004-06-29 06:36:28 51°15.201 2°54.326 15 326 15.9 102480 70
2004-06-29 06:36:33 51°15.217 2°54.312 13.6 331 15.9 102480 70
2004-06-29 06:36:38 51°15.234 2°54.298 12.8 330 15.9 102470 69
2004-06-29 06:36:43 51°15.25 2°54.285 13.3 331 15.9 102470 69
2004-06-29 06:36:47 51°15.263 2°54.274 15.1 330 15.9 102460 69
2004-06-29 06:36:53 51°15.283 2°54.258 14.3 329 15.9 102460 69
2004-06-29 06:36:58 51°15.3 2°54.244 14.6 330 16 102470 69
2004-06-29 06:37:03 51°15.316 2°54.23 13.8 328 16 102470 69
2004-06-29 06:37:07 51°15.329 2°54.219 12.2 328 15.9 102480 69
2004-06-29 06:37:13 51°15.349 2°54.202 13.9 330 15.9 102480 69
2004-06-29 06:37:18 51°15.365 2°54.188 15.3 330 15.9 102470 69
2004-06-29 06:37:23 51°15.381 2°54.173 13 330 15.9 102470 69
2004-06-29 06:37:28 51°15.397 2°54.159 15.7 328 15.9 102470 68
2004-06-29 06:37:33 51°15.414 2°54.144 14.1 327 15.9 102470 68
2004-06-29 06:37:38 51°15.43 2°54.13 13.2 331 15.9 102470 68
2004-06-29 06:37:43 51°15.446 2°54.115 14.3 332 15.9 102470 68
2004-06-29 06:37:47 51°15.459 2°54.103 13.4 326 15.9 102470 69
2004-06-29 06:37:53 51°15.478 2°54.086 13.9 329 15.9 102470 69
2004-06-29 06:37:58 51°15.494 2°54.071 14.4 327 15.9 102460 68
2004-06-29 06:38:03 51°15.51 2°54.056 14 326 15.9 102460 68
2004-06-29 06:38:06 51°15.52 2°54.048 13.8 328 15.9 102470 69
2004-06-29 06:38:14 51°15.545 2°54.024 13.6 324 15.9 102470 69
2004-06-29 06:38:18 51°15.558 2°54.012 13.9 324 15.9 102470 69
2004-06-29 06:38:23 51°15.574 2°53.998 13.8 327 15.9 102470 69
2004-06-29 06:38:27 51°15.587 2°53.986 12.5 329 15.9 102460 68
2004-06-29 06:38:33 51°15.607 2°53.968 13.9 329 15.9 102460 68
2004-06-29 06:38:38 51°15.623 2°53.954 14.7 324 15.9 102470 69
2004-06-29 06:38:43 51°15.639 2°53.939 15.4 323 15.9 102470 69
2004-06-29 06:38:47 51°15.652 2°53.927 14.1 323 15.9 102470 69
2004-06-29 06:38:53 51°15.671 2°53.911 14.2 321 15.9 102470 69
2004-06-29 06:38:58 51°15.688 2°53.898 14.5 320 15.9 102470 70
2004-06-29 06:39:03 51°15.704 2°53.885 14.5 321 15.9 102470 70
2004-06-29 06:39:07 51°15.718 2°53.874 13.3 324 15.9 102470 69
2004-06-29 06:39:13 51°15.738 2°53.859 12.7 330 15.9 102470 69
2004-06-29 06:39:18 51°15.754 2°53.846 14.5 326 15.9 102460 69
2004-06-29 06:39:23 51°15.771 2°53.833 15.1 327 15.9 102460 69
2004-06-29 06:39:27 51°15.784 2°53.822 14.6 327 15.9 102470 69
2004-06-29 06:39:33 51°15.804 2°53.807 15.3 324 15.9 102470 69
2004-06-29 06:39:38 51°15.82 2°53.794 13.4 322 15.9 102470 69
2004-06-29 06:39:43 51°15.837 2°53.781 13.9 323 15.9 102470 69
2004-06-29 06:39:47 51°15.85 2°53.77 14.4 325 15.9 102460 69
2004-06-29 06:39:53 51°15.87 2°53.755 15.1 318 15.9 102460 69
2004-06-29 06:39:58 51°15.886 2°53.743 14.1 321 15.9 102470 69
2004-06-29 06:40:03 51°15.903 2°53.73 13.8 322 15.9 102470 69
2004-06-29 06:40:07 51°15.916 2°53.72 12.9 322 15.9 102470 69
2004-06-29 06:40:13 51°15.936 2°53.705 14.3 321 15.9 102470 69
2004-06-29 06:40:18 51°15.952 2°53.692 13 324 15.9 102460 69
2004-06-29 06:40:23 51°15.969 2°53.679 14.5 324 15.9 102460 69
2004-06-29 06:40:28 51°15.985 2°53.666 13.7 320 15.9 102460 69
2004-06-29 06:40:33 51°16.002 2°53.654 14.1 323 15.9 102460 69
2004-06-29 06:40:38 51°16.019 2°53.641 13.6 323 15.9 102470 69
2004-06-29 06:40:43 51°16.035 2°53.628 14.5 325 15.9 102470 69
2004-06-29 06:40:47 51°16.048 2°53.618 14 323 15.9 102460 69
2004-06-29 06:40:53 51°16.068 2°53.603 13.8 324 15.9 102460 69
2004-06-29 06:40:58 51°16.085 2°53.59 13.3 326 15.8 102460 68
2004-06-29 06:41:03 51°16.102 2°53.577 13.3 329 15.8 102460 68
2004-06-29 06:41:07 51°16.115 2°53.567 14 331 15.8 102460 69
2004-06-29 06:41:13 51°16.135 2°53.552 14.7 331 15.8 102460 69
2004-06-29 06:41:17 51°16.148 2°53.541 14.2 329 15.9 102470 69
2004-06-29 06:41:23 51°16.168 2°53.526 15.6 328 15.9 102470 69
2004-06-29 06:41:27 51°16.182 2°53.516 14.9 328 15.9 102480 70
2004-06-29 06:41:33 51°16.201 2°53.501 14.3 329 15.9 102480 70
2004-06-29 06:41:38 51°16.218 2°53.489 13.9 330 15.9 102470 69
2004-06-29 06:41:43 51°16.235 2°53.476 14.6 328 15.9 102470 69
2004-06-29 06:41:47 51°16.248 2°53.466 14.6 328 15.8 102470 68
2004-06-29 06:41:53 51°16.268 2°53.451 13.9 331 15.8 102470 68
2004-06-29 06:41:58 51°16.284 2°53.438 15.1 327 15.8 102460 68
2004-06-29 06:42:03 51°16.301 2°53.425 14.8 324 15.8 102460 68
2004-06-29 06:42:07 51°16.314 2°53.415 13.9 323 15.8 102470 68
2004-06-29 06:42:11 51°16.327 2°53.405 13.6 325 15.8 102470 68
2004-06-29 06:42:17 51°16.347 2°53.39 15.2 325 15.8 102460 68
2004-06-29 06:42:23 51°16.367 2°53.375 14.6 322 15.8 102460 68
2004-06-29 06:42:26 51°16.377 2°53.367 13.5 326 15.8 102470 69
2004-06-29 06:42:33 51°16.4 2°53.349 14.8 322 15.8 102470 69
2004-06-29 06:42:38 51°16.416 2°53.337 14 321 15.8 102460 68
2004-06-29 06:42:43 51°16.433 2°53.324 13.7 326 15.8 102460 68
2004-06-29 06:42:48 51°16.45 2°53.312 13.5 325 15.8 102470 68
2004-06-29 06:42:54 51°16.469 2°53.296 13 329 15.8 102470 68
2004-06-29 06:42:58 51°16.482 2°53.286 13.6 328 15.8 102460 68
2004-06-29 06:43:03 51°16.499 2°53.273 14.5 329 15.8 102460 68
2004-06-29 06:43:07 51°16.512 2°53.263 13.8 324 15.8 102460 68
2004-06-29 06:43:13 51°16.532 2°53.248 13.8 329 15.8 102460 68
2004-06-29 06:43:18 51°16.549 2°53.236 13.7 327 15.8 102470 68
2004-06-29 06:43:23 51°16.565 2°53.223 12.4 328 15.8 102470 68
2004-06-29 06:43:28 51°16.582 2°53.21 14.1 331 15.8 102470 69
2004-06-29 06:43:33 51°16.598 2°53.198 12.9 330 15.8 102470 69
2004-06-29 06:43:38 51°16.615 2°53.186 13.8 335 15.9 102470 69
2004-06-29 06:43:43 51°16.631 2°53.173 15.1 330 15.9 102470 69
2004-06-29 06:43:47 51°16.644 2°53.163 14.6 328 15.9 102470 70
2004-06-29 06:43:52 51°16.661 2°53.15 13.3 326 15.9 102470 70
2004-06-29 06:43:58 51°16.68 2°53.135 14 326 15.9 102470 70
2004-06-29 06:44:03 51°16.697 2°53.123 13.4 323 15.9 102470 70
2004-06-29 06:44:06 51°16.707 2°53.115 14.2 329 15.9 102470 69
2004-06-29 06:44:13 51°16.73 2°53.097 14 331 15.9 102470 69
2004-06-29 06:44:18 51°16.746 2°53.084 14.7 329 15.8 102470 69
2004-06-29 06:44:23 51°16.763 2°53.071 14.2 328 15.8 102470 69
2004-06-29 06:44:28 51°16.779 2°53.059 13.9 328 15.9 102460 69
2004-06-29 06:44:34 51°16.799 2°53.044 14.3 328 15.9 102460 69
2004-06-29 06:44:38 51°16.812 2°53.034 14.8 327 15.8 102470 69
2004-06-29 06:44:43 51°16.828 2°53.022 14.4 328 15.8 102470 69
2004-06-29 06:44:47 51°16.841 2°53.012 14.5 325 15.8 102470 69
2004-06-29 06:44:53 51°16.86 2°52.997 14.9 326 15.8 102470 69
2004-06-29 06:44:58 51°16.876 2°52.985 13.6 323 15.8 102460 69
2004-06-29 06:45:03 51°16.892 2°52.973 14.4 324 15.8 102460 69
2004-06-29 06:45:07 51°16.905 2°52.963 13.3 322 15.8 102460 69
2004-06-29 06:45:11 51°16.918 2°52.953 12 328 15.8 102460 69
2004-06-29 06:45:17 51°16.937 2°52.938 13.3 334 15.9 102460 69
2004-06-29 06:45:23 51°16.956 2°52.922 14 330 15.9 102460 69
2004-06-29 06:45:26 51°16.966 2°52.914 14 328 15.8 102460 69
2004-06-29 06:45:33 51°16.987 2°52.894 14 327 15.8 102460 69
2004-06-29 06:45:38 51°17.003 2°52.88 13.4 326 15.9 102480 70
2004-06-29 06:45:43 51°17.019 2°52.866 13 325 15.9 102480 70
2004-06-29 06:45:48 51°17.035 2°52.851 13.4 329 15.8 102470 70
2004-06-29 06:45:53 51°17.051 2°52.838 13.2 331 15.8 102470 70
2004-06-29 06:45:58 51°17.067 2°52.824 14.4 333 15.8 102460 69
2004-06-29 06:46:03 51°17.084 2°52.81 13.9 327 15.8 102460 69
2004-06-29 06:46:07 51°17.096 2°52.799 14.2 326 15.8 102480 70
2004-06-29 06:46:13 51°17.115 2°52.781 13.6 332 15.8 102480 70
2004-06-29 06:46:18 51°17.131 2°52.767 14 334 15.9 102470 70
2004-06-29 06:46:23 51°17.147 2°52.752 14.2 333 15.9 102470 70
2004-06-29 06:46:28 51°17.163 2°52.738 13.8 333 15.8 102470 69
2004-06-29 06:46:32 51°17.176 2°52.727 14.4 332 15.8 102470 69
2004-06-29 06:46:37 51°17.192 2°52.713 12.9 328 15.8 102460 70
2004-06-29 06:46:43 51°17.211 2°52.696 14.1 329 15.8 102460 70
2004-06-29 06:46:47 51°17.223 2°52.685 12.7 331 15.8 102470 70
2004-06-29 06:46:53 51°17.243 2°52.668 13.3 330 15.8 102470 70
2004-06-29 06:46:58 51°17.258 2°52.654 13.9 327 15.8 102470 69
2004-06-29 06:47:03 51°17.274 2°52.64 13.5 329 15.8 102470 69
2004-06-29 06:47:06 51°17.284 2°52.632 13.3 331 15.8 102480 69
2004-06-29 06:47:13 51°17.306 2°52.611 14.4 331 15.8 102480 69
2004-06-29 06:47:18 51°17.322 2°52.597 14.3 328 15.8 102470 70
2004-06-29 06:47:23 51°17.337 2°52.583 13.5 326 15.8 102470 70
2004-06-29 06:47:28 51°17.354 2°52.569 13.8 328 15.8 102470 70
2004-06-29 06:47:33 51°17.37 2°52.555 13.4 327 15.8 102470 70
2004-06-29 06:47:38 51°17.385 2°52.541 13.8 327 15.8 102470 70
2004-06-29 06:47:43 51°17.401 2°52.526 13.8 326 15.8 102470 70
2004-06-29 06:47:47 51°17.414 2°52.515 13.9 323 15.8 102470 70
2004-06-29 06:47:53 51°17.433 2°52.498 13.7 325 15.8 102470 70
2004-06-29 06:47:58 51°17.449 2°52.484 12.7 320 15.8 102470 70
2004-06-29 06:48:03 51°17.465 2°52.47 13 321 15.8 102470 70
2004-06-29 06:48:06 51°17.474 2°52.461 13 330 15.8 102480 70
2004-06-29 06:48:13 51°17.497 2°52.442 14.2 326 15.8 102480 70
2004-06-29 06:48:18 51°17.513 2°52.428 13.4 331 15.8 102460 70
2004-06-29 06:48:23 51°17.529 2°52.414 14 328 15.8 102460 70
2004-06-29 06:48:28 51°17.544 2°52.399 14.6 325 15.8 102470 70
2004-06-29 06:48:33 51°17.56 2°52.385 14 325 15.8 102470 70
2004-06-29 06:48:38 51°17.576 2°52.37 13.9 324 15.8 102470 71
2004-06-29 06:48:43 51°17.592 2°52.356 12.4 322 15.8 102470 71
2004-06-29 06:48:47 51°17.604 2°52.345 12.3 321 15.8 102470 71
2004-06-29 06:48:52 51°17.621 2°52.331 12.3 322 15.8 102470 71
2004-06-29 06:48:58 51°17.64 2°52.314 14.7 328 15.8 102470 71
2004-06-29 06:49:03 51°17.655 2°52.3 14.3 327 15.8 102470 71
2004-06-29 06:49:06 51°17.665 2°52.291 13.8 327 15.8 102470 71
2004-06-29 06:49:14 51°17.691 2°52.269 12.9 326 15.8 102470 71
2004-06-29 06:49:18 51°17.703 2°52.258 14.6 329 15.8 102470 71
2004-06-29 06:49:23 51°17.719 2°52.244 13.8 327 15.8 102470 71
2004-06-29 06:49:27 51°17.732 2°52.233 12.9 327 15.8 102450 71
2004-06-29 06:49:33 51°17.751 2°52.216 14.5 328 15.8 102450 71
2004-06-29 06:49:38 51°17.767 2°52.201 12.7 327 15.8 102460 70
2004-06-29 06:49:43 51°17.783 2°52.187 14.4 326 15.8 102460 70
2004-06-29 06:49:48 51°17.798 2°52.173 13.3 325 15.8 102450 70
2004-06-29 06:49:53 51°17.814 2°52.159 14.2 326 15.8 102450 70
2004-06-29 06:49:57 51°17.827 2°52.147 13.7 325 15.7 102460 70
2004-06-29 06:50:03 51°17.846 2°52.131 13.8 330 15.7 102460 70
2004-06-29 06:50:08 51°17.862 2°52.117 13.6 327 15.7 102460 70
2004-06-29 06:50:13 51°17.878 2°52.103 14.3 324 15.7 102460 70
2004-06-29 06:50:18 51°17.894 2°52.089 13.1 324 15.7 102470 70
2004-06-29 06:50:23 51°17.909 2°52.074 12.9 326 15.7 102470 70
2004-06-29 06:50:27 51°17.922 2°52.063 13.1 323 15.7 102460 70
2004-06-29 06:50:33 51°17.941 2°52.047 13.2 319 15.7 102460 70
2004-06-29 06:50:38 51°17.957 2°52.033 12.5 319 15.7 102450 70
2004-06-29 06:50:43 51°17.973 2°52.018 13.5 323 15.7 102450 70
2004-06-29 06:50:47 51°17.986 2°52.007 13.4 323 15.7 102460 70
2004-06-29 06:50:53 51°18.005 2°51.99 13 326 15.7 102460 70
2004-06-29 06:50:58 51°18.02 2°51.976 12.8 327 15.7 102450 71
2004-06-29 06:51:03 51°18.036 2°51.962 14.5 327 15.7 102450 71
2004-06-29 06:51:07 51°18.049 2°51.951 13 327 15.7 102470 70
2004-06-29 06:51:11 51°18.061 2°51.939 13.6 325 15.7 102470 70
2004-06-29 06:51:17 51°18.08 2°51.922 13.5 325 15.7 102470 71
2004-06-29 06:51:22 51°18.096 2°51.908 14.3 326 15.7 102470 71
2004-06-29 06:51:28 51°18.115 2°51.891 14 332 15.7 102450 71
2004-06-29 06:51:34 51°18.134 2°51.874 13.2 326 15.7 102450 71
2004-06-29 06:51:38 51°18.147 2°51.863 13.1 324 15.7 102460 71
2004-06-29 06:51:43 51°18.163 2°51.849 12.7 327 15.7 102460 71
2004-06-29 06:51:48 51°18.179 2°51.835 13 323 15.7 102460 71
2004-06-29 06:51:53 51°18.194 2°51.82 13 327 15.7 102460 71
2004-06-29 06:51:58 51°18.21 2°51.805 14.8 326 15.7 102460 71
2004-06-29 06:52:03 51°18.224 2°51.787 14 330 15.7 102460 71
2004-06-29 06:52:08 51°18.238 2°51.77 13.1 330 15.7 102470 72
2004-06-29 06:52:13 51°18.251 2°51.75 12.9 332 15.7 102470 72
2004-06-29 06:52:18 51°18.265 2°51.732 15.4 337 15.7 102470 72
2004-06-29 06:52:23 51°18.278 2°51.711 14.2 336 15.7 102470 72
2004-06-29 06:52:27 51°18.288 2°51.696 15.2 333 15.7 102460 71
2004-06-29 06:52:33 51°18.303 2°51.672 14 335 15.7 102460 71
2004-06-29 06:52:38 51°18.316 2°51.651 13.1 333 15.7 102460 72
2004-06-29 06:52:43 51°18.329 2°51.631 14.3 333 15.7 102460 72
2004-06-29 06:52:47 51°18.339 2°51.614 14.1 334 15.7 102460 71
2004-06-29 06:52:53 51°18.354 2°51.59 14.1 332 15.7 102460 71
2004-06-29 06:52:58 51°18.368 2°51.57 12.8 334 15.7 102460 71
2004-06-29 06:53:03 51°18.38 2°51.549 15.1 332 15.7 102460 71
2004-06-29 06:53:07 51°18.391 2°51.533 13.6 334 15.7 102460 71
2004-06-29 06:53:11 51°18.401 2°51.517 14.3   15.7 102460 71
2004-06-29 06:53:17 51°18.416 2°51.492 13.6 338 15.7 102450 71
2004-06-29 06:53:22 51°18.429 2°51.472 14 334 15.7 102450 71
2004-06-29 06:53:28 51°18.444 2°51.447 14.2 340 15.7 102460 71
2004-06-29 06:53:33 51°18.457 2°51.427 15.1 338 15.7 102460 71
2004-06-29 06:53:38 51°18.47 2°51.407 14.6 337 15.7 102460 72
2004-06-29 06:53:43 51°18.483 2°51.387 13.9 332 15.7 102460 72
2004-06-29 06:53:48 51°18.496 2°51.367 14.8 338 15.8 102460 72
2004-06-29 06:53:53 51°18.509 2°51.346 14 336 15.8 102460 72
2004-06-29 06:53:58 51°18.522 2°51.326 13.8 335 15.7 102470 72
2004-06-29 06:54:03 51°18.535 2°51.306 13.7 333 15.7 102470 72
2004-06-29 06:54:08 51°18.548 2°51.285 14 337 15.8 102450 72
2004-06-29 06:54:13 51°18.561 2°51.265 14.4   15.8 102450 72
2004-06-29 06:54:18 51°18.574 2°51.245 14.7 338 15.8 102460 72
2004-06-29 06:54:23 51°18.587 2°51.225 14.3 335 15.8 102460 72
2004-06-29 06:54:27 51°18.597 2°51.209 14 332 15.8 102450 72
2004-06-29 06:54:33 51°18.613 2°51.184 13.6 334 15.8 102450 72
2004-06-29 06:54:38 51°18.626 2°51.164 14.9 338 15.7 102460 72
2004-06-29 06:54:43 51°18.639 2°51.144 15.1 334 15.7 102460 72
2004-06-29 06:54:46 51°18.646 2°51.132 14.2 333 15.7 102450 72
2004-06-29 06:54:53 51°18.664 2°51.103 14.1 335 15.7 102450 72
2004-06-29 06:54:58 51°18.677 2°51.083 13.9 331 15.7 102450 72
2004-06-29 06:55:03 51°18.69 2°51.063 13.2 337 15.7 102450 72
2004-06-29 06:55:08 51°18.703 2°51.042 14.8 335 15.7 102450 72
2004-06-29 06:55:14 51°18.719 2°51.018 15 333 15.7 102450 72
2004-06-29 06:55:17 51°18.726 2°51.006 15 334 15.7 102460 72
2004-06-29 06:55:23 51°18.742 2°50.982 14.9 333 15.7 102460 72
2004-06-29 06:55:27 51°18.753 2°50.966 14.1 331 15.7 102460 72
2004-06-29 06:55:31 51°18.763 2°50.95 13.3 330 15.7 102460 72
2004-06-29 06:55:38 51°18.781 2°50.922 13.7 334 15.7 102450 72
2004-06-29 06:55:43 51°18.795 2°50.902 14.1 333 15.7 102450 72
2004-06-29 06:55:47 51°18.805 2°50.886 14.3 332 15.7 102450 72
2004-06-29 06:55:53 51°18.821 2°50.862 14.4 332 15.7 102450 72
2004-06-29 06:55:58 51°18.834 2°50.842 13.2 336 15.7 102450 72
2004-06-29 06:56:03 51°18.847 2°50.822 14.9 330 15.7 102450 72
2004-06-29 06:56:06 51°18.855 2°50.81 13.9 331 15.7 102450 73
2004-06-29 06:56:12 51°18.871 2°50.786 15.2   15.7 102450 73
2004-06-29 06:56:17 51°18.884 2°50.766 14.3 329 15.7 102450 73
2004-06-29 06:56:23 51°18.9 2°50.742 13 328 15.7 102450 73
2004-06-29 06:56:27 51°18.911 2°50.726 13.7 330 15.8 102450 73
2004-06-29 06:56:33 51°18.926 2°50.702 13.3 336 15.8 102450 73
2004-06-29 06:56:38 51°18.94 2°50.683 13.4 333 15.7 102440 73
2004-06-29 06:56:43 51°18.953 2°50.663 13.9 335 15.7 102440 73
2004-06-29 06:56:47 51°18.963 2°50.647 14.6 336 15.8 102450 73
2004-06-29 06:56:53 51°18.979 2°50.623 13.6 337 15.8 102450 73
2004-06-29 06:56:57 51°18.99 2°50.607 15.7 335 15.7 102450 74
2004-06-29 06:57:03 51°19.006 2°50.584 14.6 333 15.7 102450 74
2004-06-29 06:57:07 51°19.016 2°50.568 16.1 330 15.8 102440 74
2004-06-29 06:57:13 51°19.032 2°50.544 15.7   15.8 102440 74
2004-06-29 06:57:18 51°19.045 2°50.525 14.8 335 15.8 102450 74
2004-06-29 06:57:22 51°19.056 2°50.509 15.1 337 15.8 102450 74
2004-06-29 06:57:28 51°19.072 2°50.485 15.9 334 15.7 102430 73
2004-06-29 06:57:33 51°19.085 2°50.465 15.9 334 15.7 102430 73
2004-06-29 06:57:38 51°19.098 2°50.446 15.6 331 15.7 102440 73
2004-06-29 06:57:43 51°19.112 2°50.426 14.4 331 15.7 102440 73
2004-06-29 06:57:47 51°19.123 2°50.411 15.4 331 15.7 102440 73
2004-06-29 06:57:53 51°19.139 2°50.387 14.8 333 15.7 102440 73
2004-06-29 06:57:57 51°19.149 2°50.372 15.9 333 15.7 102440 72
2004-06-29 06:58:03 51°19.165 2°50.348 15.7 331 15.7 102440 72
2004-06-29 06:58:07 51°19.176 2°50.333 15.4 329 15.7 102440 72
2004-06-29 06:58:13 51°19.192 2°50.309 13.4   15.7 102440 72
2004-06-29 06:58:18 51°19.205 2°50.29 14.6 331 15.6 102440 72
2004-06-29 06:58:21 51°19.213 2°50.278 14.7 331 15.6 102440 72
2004-06-29 06:58:27 51°19.229 2°50.254 14.2 332 15.6 102430 72
2004-06-29 06:58:33 51°19.245 2°50.231 13.9 333 15.6 102430 72
2004-06-29 06:58:38 51°19.258 2°50.212 13.8 333 15.7 102440 72
2004-06-29 06:58:42 51°19.269 2°50.196 15.1 332 15.7 102440 72
2004-06-29 06:58:47 51°19.282 2°50.177 13.7 329 15.6 102440 72
2004-06-29 06:58:53 51°19.298 2°50.153 14.1 330 15.6 102440 72
2004-06-29 06:58:58 51°19.311 2°50.134 14.9 330 15.7 102450 72
2004-06-29 06:59:03 51°19.324 2°50.114 14.2 336 15.7 102450 72
2004-06-29 06:59:07 51°19.335 2°50.099 15.5 335 15.6 102450 72
2004-06-29 06:59:13 51°19.35 2°50.075 14.9 334 15.6 102450 72
2004-06-29 06:59:18 51°19.363 2°50.056 15.4 332 15.7 102450 73
2004-06-29 06:59:23 51°19.376 2°50.036 14.8 330 15.7 102450 73
2004-06-29 06:59:26 51°19.384 2°50.025 14.9 335 15.7 102440 73
2004-06-29 06:59:33 51°19.402 2°49.998 14.7 333 15.7 102440 73
2004-06-29 06:59:37 51°19.412 2°49.981 14.8 332 15.6 102430 72
2004-06-29 06:59:43 51°19.427 2°49.956 14.3 335 15.6 102430 72
2004-06-29 06:59:48 51°19.439 2°49.934 14.3 336 15.6 102440 72
2004-06-29 06:59:53 51°19.451 2°49.913 14.3 339 15.6 102440 72
2004-06-29 06:59:58 51°19.463 2°49.891 14.8 341 15.6 102450 72
2004-06-29 07:00:03 51°19.474 2°49.869 15.5 335 15.6 102450 72
2004-06-29 07:00:05 51°19.479 2°49.86 15 333 15.6 102450 73
2004-06-29 07:00:13 51°19.497 2°49.825 14.4 336 15.6 102450 73
2004-06-29 07:00:17 51°19.506 2°49.807 14.5 341 15.6 102450 73
2004-06-29 07:00:23 51°19.52 2°49.78 15 338 15.6 102450 73
2004-06-29 07:00:28 51°19.532 2°49.758 14.1 336 15.6 102450 73
2004-06-29 07:00:33 51°19.544 2°49.737 14.9 338 15.6 102450 73
2004-06-29 07:00:38 51°19.556 2°49.715 14.5 337 15.6 102440 73
2004-06-29 07:00:43 51°19.567 2°49.693 14.7 336 15.6 102440 73
2004-06-29 07:00:48 51°19.579 2°49.671 15 336 15.7 102450 73
2004-06-29 07:00:53 51°19.59 2°49.649 13.7 338 15.7 102450 73
2004-06-29 07:00:58 51°19.602 2°49.627 13.9 336 15.6 102440 73
2004-06-29 07:01:03 51°19.614 2°49.605 14.9 338 15.6 102440 73
2004-06-29 07:01:07 51°19.623 2°49.587 13.5 341 15.6 102440 72
2004-06-29 07:01:13 51°19.637 2°49.56 14.2 339 15.6 102440 72
2004-06-29 07:01:18 51°19.648 2°49.538 14.9 337 15.6 102450 73
2004-06-29 07:01:23 51°19.659 2°49.516 15.3 340 15.6 102450 73
2004-06-29 07:01:26 51°19.665 2°49.501 14.1 342 15.6 102450 73
2004-06-29 07:01:34 51°19.678 2°49.461 15.5 344 15.6 102450 73
2004-06-29 07:01:38 51°19.684 2°49.44 15 346 15.6 102450 73
2004-06-29 07:01:43 51°19.691 2°49.414 12.7 350 15.6 102450 73
2004-06-29 07:01:48 51°19.697 2°49.387 13.9 347 15.6 102440 73
2004-06-29 07:01:53 51°19.702 2°49.36 15.1 346 15.6 102440 73
2004-06-29 07:01:58 51°19.708 2°49.332 14.2 350 15.6 102450 73
2004-06-29 07:02:03 51°19.713 2°49.305 15.7 344 15.6 102450 73
2004-06-29 07:02:08 51°19.718 2°49.277 15.2 342 15.6 102450 74
2004-06-29 07:02:10 51°19.72 2°49.266 13.4 343 15.6 102450 74
2004-06-29 07:02:18 51°19.728 2°49.222 14.6 348 15.7 102450 74
2004-06-29 07:02:23 51°19.733 2°49.194 14.8 346 15.7 102450 74
2004-06-29 07:02:28 51°19.738 2°49.166 14.2 345 15.7 102450 74
2004-06-29 07:02:33 51°19.743 2°49.138 14.8 350 15.7 102450 74
2004-06-29 07:02:37 51°19.747 2°49.116 15.5 350 15.7 102460 74
2004-06-29 07:02:43 51°19.753 2°49.082 16.2 349 15.7 102460 74
2004-06-29 07:02:48 51°19.757 2°49.054 15.9 350 15.7 102450 74
2004-06-29 07:02:52 51°19.761 2°49.032 15.7 354 15.7 102450 74
2004-06-29 07:02:57 51°19.765 2°49.003 15.5 352 15.7 102460 74
2004-06-29 07:03:03 51°19.768 2°48.969 14.8 352 15.7 102460 74
2004-06-29 07:03:06 51°19.77 2°48.952 14.6 354 15.7 102450 74
2004-06-29 07:03:13 51°19.774 2°48.911 15.5 358 15.7 102450 74
2004-06-29 07:03:17 51°19.776 2°48.888 15.7 358 15.6 102440 74
2004-06-29 07:03:23 51°19.778 2°48.853 15.1 1 15.6 102440 74
2004-06-29 07:03:28 51°19.781 2°48.825 16 358 15.6 102450 74
2004-06-29 07:03:33 51°19.783 2°48.795 15.5 355 15.6 102450 74
2004-06-29 07:03:37 51°19.785 2°48.772 15.9 353 15.6 102460 74
2004-06-29 07:03:43 51°19.788 2°48.738 15.1 353 15.6 102460 74
2004-06-29 07:03:48 51°19.79 2°48.708 14.1 351 15.6 102460 74
2004-06-29 07:03:53 51°19.793 2°48.68 15.4 353 15.6 102460 74
2004-06-29 07:03:57 51°19.795 2°48.657 13.8 346 15.6 102450 73
2004-06-29 07:04:03 51°19.799 2°48.622 14.4 349 15.6 102450 73
2004-06-29 07:04:08 51°19.802 2°48.593 14.3 353 15.6 102460 74
2004-06-29 07:04:13 51°19.806 2°48.564 14 355 15.6 102460 74
2004-06-29 07:04:26 51°19.814 2°48.489 15 353 15.6 102460 74
2004-06-29 07:04:30 51°19.816 2°48.466 15.1 356 15.6 102460 75
2004-06-29 07:04:33 51°19.818 2°48.449 15.9 353 15.6 102460 75
2004-06-29 07:04:41 51°19.824 2°48.403 15.3 354 15.6 102460 75
2004-06-29 07:04:46 51°19.827 2°48.375 15.9 354 15.6 102460 75
2004-06-29 07:04:50 51°19.83 2°48.351 16.7 353 15.6 102460 75
2004-06-29 07:04:56 51°19.834 2°48.317 16.7 350 15.6 102460 75
2004-06-29 07:05:00 51°19.837 2°48.294 16.2 352 15.6 102460 75
2004-06-29 07:05:05 51°19.84 2°48.265 15.4 351 15.6 102460 75
2004-06-29 07:05:10 51°19.843 2°48.236 15.1 350 15.7 102450 74
2004-06-29 07:05:14 51°19.846 2°48.213 14.4 354 15.7 102450 74
2004-06-29 07:05:20 51°19.85 2°48.178 14.6 351 15.6 102450 74
2004-06-29 07:05:25 51°19.853 2°48.15 15.4 353 15.6 102450 74
2004-06-29 07:05:30 51°19.857 2°48.121 15.1 352 15.6 102450 74
2004-06-29 07:05:36 51°19.861 2°48.087 15.1 350 15.6 102450 74
2004-06-29 07:05:40 51°19.863 2°48.064 15.7 352 15.6 102450 74
2004-06-29 07:05:44 51°19.866 2°48.041 15.5 349 15.6 102450 74
2004-06-29 07:05:49 51°19.869 2°48.012 15.9 352 15.6 102460 75
2004-06-29 07:05:55 51°19.873 2°47.978 16 351 15.6 102460 75
2004-06-29 07:06:00 51°19.877 2°47.95 15.7 352 15.6 102450 74
2004-06-29 07:06:05 51°19.88 2°47.921 15 351 15.6 102450 74
2004-06-29 07:06:10 51°19.884 2°47.893 15.3 352 15.6 102450 74
2004-06-29 07:06:14 51°19.887 2°47.87 15 352 15.6 102450 74
2004-06-29 07:06:20 51°19.891 2°47.836 15.6 352 15.6 102440 74
2004-06-29 07:06:25 51°19.894 2°47.807 15 350 15.6 102440 74
2004-06-29 07:06:30 51°19.898 2°47.778 14 351 15.6 102450 74
2004-06-29 07:06:36 51°19.902 2°47.744 15.4 351 15.6 102450 74
2004-06-29 07:06:40 51°19.905 2°47.721 15 352 15.6 102460 75
2004-06-29 07:06:45 51°19.908 2°47.693 15.2 350 15.6 102460 75
2004-06-29 07:06:49 51°19.911 2°47.67 15.7 352 15.6 102450 75
2004-06-29 07:06:55 51°19.916 2°47.636 14.9 352 15.6 102450 75
2004-06-29 07:07:00 51°19.919 2°47.607 14.4 354 15.6 102450 75
2004-06-29 07:07:05 51°19.923 2°47.579 14.4 351 15.6 102450 75
2004-06-29 07:07:10 51°19.926 2°47.55 13.8 355 15.6 102450 75
2004-06-29 07:07:14 51°19.929 2°47.528 15.1 356 15.6 102450 75
2004-06-29 07:07:20 51°19.933 2°47.493 15 353 15.6 102450 75
2004-06-29 07:07:25 51°19.937 2°47.465 14.7 351 15.6 102450 75
2004-06-29 07:07:30 51°19.941 2°47.437 15.6 351 15.6 102460 75
2004-06-29 07:07:36 51°19.946 2°47.403 15.5 350 15.6 102460 75
2004-06-29 07:07:40 51°19.949 2°47.38 15.6 353 15.6 102450 75
2004-06-29 07:07:45 51°19.953 2°47.352 14.6 350 15.6 102450 75
2004-06-29 07:07:49 51°19.955 2°47.329 15 352 15.6 102450 75
2004-06-29 07:07:55 51°19.96 2°47.296 15.1 356 15.6 102450 75
2004-06-29 07:08:00 51°19.964 2°47.267 16 351 15.6 102450 74
2004-06-29 07:08:05 51°19.967 2°47.239 15.2 353 15.6 102450 74
2004-06-29 07:08:10 51°19.971 2°47.211 15.7 356 15.6 102440 74
2004-06-29 07:08:13 51°19.973 2°47.194 15.5 353 15.6 102440 74
2004-06-29 07:08:20 51°19.978 2°47.155 14.7 350 15.6 102440 74
2004-06-29 07:08:25 51°19.982 2°47.127 14.9 352 15.6 102440 74
2004-06-29 07:08:30 51°19.986 2°47.098 14.8 351 15.6 102460 74
2004-06-29 07:08:36 51°19.991 2°47.065 15.5 354 15.6 102460 74
2004-06-29 07:08:40 51°19.993 2°47.042 14.2 352 15.5 102450 74
2004-06-29 07:08:45 51°19.997 2°47.014 15.6 353 15.5 102450 74
2004-06-29 07:08:49 51°20 2°46.992 15.8 353 15.5 102450 74
2004-06-29 07:08:56 51°20.005 2°46.952 14.5 355 15.5 102450 74
2004-06-29 07:09:00 51°20.008 2°46.93 14.6 354 15.5 102450 74
2004-06-29 07:09:05 51°20.012 2°46.901 14.6 354 15.5 102450 74
2004-06-29 07:09:10 51°20.015 2°46.874 14.5 353 15.5 102450 74
2004-06-29 07:09:15 51°20.019 2°46.846 15 354 15.5 102450 74
2004-06-29 07:09:19 51°20.021 2°46.824 15.2 353 15.6 102450 74
2004-06-29 07:09:25 51°20.026 2°46.79 16.1 353 15.6 102450 74
2004-06-29 07:09:29 51°20.028 2°46.767 14.9 351 15.6 102450 74
2004-06-29 07:09:36 51°20.034 2°46.728 14.9 351 15.6 102450 74
2004-06-29 07:09:40 51°20.037 2°46.706 15.4 352 15.6 102450 74
2004-06-29 07:09:45 51°20.04 2°46.678 15.7 349 15.6 102450 74
2004-06-29 07:09:49 51°20.043 2°46.656 14.8 352 15.6 102460 74
2004-06-29 07:09:56 51°20.049 2°46.617 15.5 352 15.6 102460 74
2004-06-29 07:10:00 51°20.052 2°46.595 14 352 15.6 102450 74
2004-06-29 07:10:05 51°20.055 2°46.567 15.1 351 15.6 102450 74
2004-06-29 07:10:09 51°20.058 2°46.544 14.5 349 15.6 102450 74
2004-06-29 07:10:15 51°20.062 2°46.511 14.7 349 15.6 102450 74
2004-06-29 07:10:20 51°20.066 2°46.483 15.2 355 15.6 102450 74
2004-06-29 07:10:25 51°20.07 2°46.455 15.4 352 15.6 102450 74
2004-06-29 07:10:30 51°20.073 2°46.427 15.5 351 15.6 102450 74
2004-06-29 07:10:36 51°20.078 2°46.394 15.3 349 15.6 102450 74
2004-06-29 07:10:40 51°20.081 2°46.371 15.6 351 15.6 102450 74
2004-06-29 07:10:45 51°20.084 2°46.343 14.5 351 15.6 102450 74
2004-06-29 07:10:50 51°20.087 2°46.315 14.5 354 15.5 102450 74
2004-06-29 07:10:54 51°20.089 2°46.293 14.7 357 15.5 102450 74
2004-06-29 07:11:00 51°20.091 2°46.259 15 355 15.6 102450 74
2004-06-29 07:11:05 51°20.093 2°46.231 16 351 15.6 102450 74
2004-06-29 07:11:10 51°20.094 2°46.203 15 353 15.5 102450 74
2004-06-29 07:11:15 51°20.095 2°46.175 14.6 355 15.5 102450 74
2004-06-29 07:11:20 51°20.097 2°46.146 13.4 354 15.5 102460 74
2004-06-29 07:11:23 51°20.098 2°46.129 15 353 15.5 102460 74
2004-06-29 07:11:30 51°20.1 2°46.09 14.7 355 15.5 102450 74
2004-06-29 07:11:34 51°20.101 2°46.068 13.4 357 15.5 102450 74
2004-06-29 07:11:40 51°20.103 2°46.033 14.7 354 15.5 102460 74
2004-06-29 07:11:45 51°20.104 2°46.005 15.2 356 15.5 102460 74
2004-06-29 07:11:49 51°20.105 2°45.982 14.4 356 15.6 102460 75
2004-06-29 07:11:55 51°20.106 2°45.948 14.9 357 15.6 102460 75
2004-06-29 07:12:00 51°20.108 2°45.92 14.8 357 15.6 102460 75
2004-06-29 07:12:05 51°20.109 2°45.891 15.1 356 15.6 102460 75
2004-06-29 07:12:10 51°20.11 2°45.863 14.5 356 15.6 102450 75
2004-06-29 07:12:14 51°20.112 2°45.84 14.9 358 15.6 102450 75
2004-06-29 07:12:20 51°20.113 2°45.806 13.9 353 15.6 102460 75
2004-06-29 07:12:25 51°20.115 2°45.778 16 353 15.6 102460 75
2004-06-29 07:12:30 51°20.116 2°45.749 15.3 353 15.6 102460 75
2004-06-29 07:12:36 51°20.117 2°45.714 14.1 357 15.6 102460 75
2004-06-29 07:12:40 51°20.119 2°45.692 14.2 352 15.6 102460 76
2004-06-29 07:12:45 51°20.12 2°45.663 15.2 357 15.6 102460 76
2004-06-29 07:12:50 51°20.122 2°45.635 16.8 356 15.6 102460 75
2004-06-29 07:12:56 51°20.124 2°45.601 14.8 355 15.6 102460 75
2004-06-29 07:13:00 51°20.125 2°45.578 15.4 355 15.6 102460 75
2004-06-29 07:13:04 51°20.126 2°45.555 15.8 354 15.6 102460 75
2004-06-29 07:13:10 51°20.127 2°45.521 15 354 15.6 102460 75
2004-06-29 07:13:14 51°20.129 2°45.498 15.1 354 15.6 102460 75
2004-06-29 07:13:20 51°20.131 2°45.464 16 356 15.5 102460 75
2004-06-29 07:13:25 51°20.133 2°45.435 15.6 355 15.5 102460 75
2004-06-29 07:13:30 51°20.134 2°45.407 16.2 356 15.5 102450 75
2004-06-29 07:13:36 51°20.136 2°45.372 15 356 15.5 102450 75
2004-06-29 07:13:40 51°20.137 2°45.349 15.7 356 15.5 102460 75
2004-06-29 07:13:45 51°20.139 2°45.321 15 358 15.5 102460 75
2004-06-29 07:13:50 51°20.141 2°45.292 15.5 353 15.5 102460 75
2004-06-29 07:13:54 51°20.142 2°45.269 15.5   15.5 102460 75
2004-06-29 07:14:00 51°20.144 2°45.235 15.4 357 15.5 102450 74
2004-06-29 07:14:05 51°20.145 2°45.207 15 357 15.5 102450 74
2004-06-29 07:14:10 51°20.147 2°45.178 15.7 353 15.5 102450 74
2004-06-29 07:14:15 51°20.148 2°45.149 14.7 354 15.5 102450 74
2004-06-29 07:14:20 51°20.15 2°45.121 14.5 353 15.5 102460 74
2004-06-29 07:14:23 51°20.151 2°45.104 14.6 354 15.5 102460 74
2004-06-29 07:14:30 51°20.153 2°45.063 16.3 356 15.4 102460 74
2004-06-29 07:14:34 51°20.155 2°45.04 14.7 354 15.4 102460 74
2004-06-29 07:14:40 51°20.157 2°45.006 15.6 355 15.4 102460 75
2004-06-29 07:14:45 51°20.158 2°44.977 15.4 355 15.4 102460 75
2004-06-29 07:14:49 51°20.16 2°44.954 15.9 351 15.5 102460 75
2004-06-29 07:14:55 51°20.161 2°44.92 16.2 351 15.5 102460 75
2004-06-29 07:15:00 51°20.163 2°44.891 15.2 353 15.5 102460 75
2004-06-29 07:15:05 51°20.165 2°44.862 15.1 357 15.5 102460 75
2004-06-29 07:15:10 51°20.166 2°44.834 16 1 15.4 102460 75
2004-06-29 07:15:14 51°20.167 2°44.81 16.8 355 15.4 102460 75
2004-06-29 07:15:20 51°20.169 2°44.776 16 354 15.4 102440 75
2004-06-29 07:15:24 51°20.17 2°44.753 15 359 15.4 102440 75
2004-06-29 07:15:30 51°20.172 2°44.719 14.5 1 15.5 102450 75
2004-06-29 07:15:34 51°20.174 2°44.696 15.1 358 15.5 102450 75
2004-06-29 07:15:40 51°20.175 2°44.661 16 358 15.4 102450 75
2004-06-29 07:15:44 51°20.177 2°44.639 16.1 356 15.4 102450 75
2004-06-29 07:15:49 51°20.178 2°44.61 16.4 354 15.4 102460 75
2004-06-29 07:15:55 51°20.18 2°44.575 15.7 355 15.4 102460 75
2004-06-29 07:16:00 51°20.182 2°44.547 16.5 353 15.4 102450 74
2004-06-29 07:16:05 51°20.183 2°44.518 16.1 355 15.4 102450 74
2004-06-29 07:16:10 51°20.185 2°44.49 15.9 355 15.4 102450 74
2004-06-29 07:16:15 51°20.186 2°44.461 15.8 355 15.4 102450 74
2004-06-29 07:16:19 51°20.188 2°44.438 16.2 355 15.4 102450 74
2004-06-29 07:16:25 51°20.19 2°44.404 15.7 355 15.4 102450 74
2004-06-29 07:16:29 51°20.191 2°44.381 15.8 354 15.4 102440 74
2004-06-29 07:16:36 51°20.193 2°44.341 15.2 355 15.4 102440 74
2004-06-29 07:16:40 51°20.195 2°44.318 15.4 355 15.4 102450 74
2004-06-29 07:16:45 51°20.196 2°44.289 16.2 355 15.4 102450 74
2004-06-29 07:16:50 51°20.198 2°44.261 15.7 353 15.4 102450 75
2004-06-29 07:16:56 51°20.2 2°44.226 15.2 358 15.4 102450 75
2004-06-29 07:17:00 51°20.201 2°44.204 14.4 359 15.4 102450 75
2004-06-29 07:17:05 51°20.203 2°44.175 14.9 357 15.4 102450 75
2004-06-29 07:17:10 51°20.205 2°44.147 15.9 356 15.4 102440 75
2004-06-29 07:17:14 51°20.207 2°44.124 14.8 356 15.4 102440 75
2004-06-29 07:17:20 51°20.21 2°44.09 15.4 354 15.4 102440 75
2004-06-29 07:17:25 51°20.213 2°44.062 14.7 354 15.4 102440 75
2004-06-29 07:17:30 51°20.216 2°44.034 14.9 354 15.4 102450 75
2004-06-29 07:17:36 51°20.219 2°44 14.4 354 15.4 102450 75
2004-06-29 07:17:40 51°20.221 2°43.977 15.2 355 15.4 102450 75
2004-06-29 07:17:45 51°20.224 2°43.949 15.7 358 15.4 102450 75
2004-06-29 07:17:50 51°20.226 2°43.921 15.7 358 15.4 102450 75
2004-06-29 07:17:56 51°20.23 2°43.887 15.7 354 15.4 102450 75
2004-06-29 07:18:00 51°20.232 2°43.864 14.9 353 15.4 102450 75
2004-06-29 07:18:05 51°20.235 2°43.836 16.2 354 15.4 102450 75
2004-06-29 07:18:10 51°20.238 2°43.808 16 354 15.4 102450 75
2004-06-29 07:18:14 51°20.241 2°43.786 14.6 352 15.4 102450 75
2004-06-29 07:18:20 51°20.246 2°43.753 15.1 351 15.4 102440 75
2004-06-29 07:18:25 51°20.249 2°43.725 15.3 348 15.4 102440 75
2004-06-29 07:18:29 51°20.252 2°43.703 14.3 350 15.4 102450 75
2004-06-29 07:18:36 51°20.259 2°43.664 14.9 348 15.4 102450 75
2004-06-29 07:18:40 51°20.263 2°43.642 14.2 347 15.4 102440 75
2004-06-29 07:18:45 51°20.268 2°43.615 13.4 346 15.4 102440 75
2004-06-29 07:18:50 51°20.273 2°43.588 13.9 348 15.4 102440 75
2004-06-29 07:18:56 51°20.28 2°43.555 14.4 345 15.4 102440 75
2004-06-29 07:19:00 51°20.284 2°43.533 13.6 349 15.4 102440 74
2004-06-29 07:19:05 51°20.289 2°43.506 13.3 350 15.4 102440 74
2004-06-29 07:19:10 51°20.295 2°43.479 13.5 352 15.4 102450 75
2004-06-29 07:19:14 51°20.299 2°43.457 14.9 349 15.4 102450 75
2004-06-29 07:19:19 51°20.304 2°43.43 15.8 347 15.4 102440 75
2004-06-29 07:19:25 51°20.311 2°43.397 14 350 15.4 102440 75
2004-06-29 07:19:30 51°20.316 2°43.37 14.6 350 15.5 102440 75
2004-06-29 07:19:34 51°20.321 2°43.348 14 352 15.5 102440 75
2004-06-29 07:19:40 51°20.327 2°43.316 13.8 347 15.5 102440 76
2004-06-29 07:19:44 51°20.331 2°43.294 15.1 351 15.5 102440 76
2004-06-29 07:19:50 51°20.338 2°43.261 14.9 352 15.5 102440 76
2004-06-29 07:19:54 51°20.342 2°43.239 15.8 348 15.5 102440 76
2004-06-29 07:20:00 51°20.348 2°43.207 15.5 349 15.5 102440 75
2004-06-29 07:20:05 51°20.353 2°43.179 14.3 349 15.5 102440 75
2004-06-29 07:20:10 51°20.358 2°43.152 15.5 347 15.5 102450 75
2004-06-29 07:20:14 51°20.362 2°43.13 15.1 347 15.5 102450 75
2004-06-29 07:20:19 51°20.368 2°43.103 14.9 348 15.5 102440 75
2004-06-29 07:20:25 51°20.374 2°43.071 14.9 346 15.5 102440 75
2004-06-29 07:20:30 51°20.379 2°43.043 15.2 346 15.4 102440 75
2004-06-29 07:20:36 51°20.386 2°43.011 14.7 346 15.4 102440 75
2004-06-29 07:20:40 51°20.39 2°42.989 14.5 346 15.5 102440 75
2004-06-29 07:20:45 51°20.395 2°42.962 13.7 348 15.5 102440 75
2004-06-29 07:20:50 51°20.4 2°42.935 14.6 349 15.4 102440 75
2004-06-29 07:20:54 51°20.404 2°42.913 14.3 350 15.4 102440 75
2004-06-29 07:21:00 51°20.411 2°42.88 15.2 351 15.5 102450 75
2004-06-29 07:21:05 51°20.416 2°42.853 14.1 346 15.5 102450 75
2004-06-29 07:21:09 51°20.42 2°42.831 13.5 351 15.5 102450 76
2004-06-29 07:21:15 51°20.426 2°42.799 14.8 351 15.5 102450 76
2004-06-29 07:21:20 51°20.431 2°42.771 14.7 351 15.5 102440 76
2004-06-29 07:21:25 51°20.436 2°42.744 15.1 352 15.5 102440 76
2004-06-29 07:21:30 51°20.442 2°42.717 14.1 350 15.5 102450 76
2004-06-29 07:21:36 51°20.448 2°42.684 14.3 351 15.5 102450 76
2004-06-29 07:21:39 51°20.451 2°42.668 14.7 350 15.5 102450 76
2004-06-29 07:21:45 51°20.457 2°42.636 14.4 347 15.5 102450 76
2004-06-29 07:21:49 51°20.462 2°42.614 15.5 347 15.5 102440 76
2004-06-29 07:21:56 51°20.469 2°42.576 14.9 348 15.5 102440 76
2004-06-29 07:22:00 51°20.473 2°42.554 14.4 353 15.5 102440 75
2004-06-29 07:22:05 51°20.478 2°42.527 14.2 354 15.5 102440 75
2004-06-29 07:22:10 51°20.483 2°42.5 13.8 352 15.4 102440 75
2004-06-29 07:22:15 51°20.489 2°42.473 14.7 354 15.4 102440 75
2004-06-29 07:22:20 51°20.494 2°42.446 14.2 353 15.4 102440 75
2004-06-29 07:22:25 51°20.499 2°42.419 14.3 353 15.4 102440 75
2004-06-29 07:22:30 51°20.504 2°42.392 14.6 355 15.5 102450 75
2004-06-29 07:22:35 51°20.509 2°42.365 14.2 353 15.5 102450 75
2004-06-29 07:22:40 51°20.514 2°42.338 14.7 353 15.4 102440 75
2004-06-29 07:22:45 51°20.52 2°42.311 14.3 350 15.4 102440 75
2004-06-29 07:22:50 51°20.525 2°42.283 14.1 348 15.5 102450 75
2004-06-29 07:22:56 51°20.531 2°42.251 13.9 350 15.5 102450 75
2004-06-29 07:23:00 51°20.535 2°42.23 15.2 352 15.5 102450 75
2004-06-29 07:23:05 51°20.54 2°42.203 14.2 350 15.5 102450 75
2004-06-29 07:23:10 51°20.545 2°42.176 14.4 347 15.5 102440 75
2004-06-29 07:23:14 51°20.55 2°42.154 13.8 349 15.5 102440 75
2004-06-29 07:23:20 51°20.556 2°42.122 15.3 347 15.5 102450 76
2004-06-29 07:23:25 51°20.561 2°42.095 14.4 351 15.5 102450 76
2004-06-29 07:23:29 51°20.565 2°42.074 14.4 350 15.5 102450 76
2004-06-29 07:23:36 51°20.573 2°42.036 14.7 352 15.5 102450 76
2004-06-29 07:23:40 51°20.577 2°42.015 14.9 353 15.5 102440 76
2004-06-29 07:23:45 51°20.582 2°41.988 14.2 347 15.5 102440 76
2004-06-29 07:23:50 51°20.587 2°41.961 14.7 347 15.5 102440 76
2004-06-29 07:23:56 51°20.594 2°41.928 14.2 348 15.5 102440 76
2004-06-29 07:24:00 51°20.598 2°41.907 13.6 348 15.5 102450 76
2004-06-29 07:24:05 51°20.604 2°41.88 14.9 356 15.5 102450 76
2004-06-29 07:24:09 51°20.608 2°41.859 15.1 358 15.5 102440 76
2004-06-29 07:24:15 51°20.614 2°41.826 15.4 354 15.5 102440 76
2004-06-29 07:24:20 51°20.619 2°41.799 14.8 353 15.5 102440 75
2004-06-29 07:24:25 51°20.624 2°41.772 14.7 352 15.5 102440 75
2004-06-29 07:24:30 51°20.63 2°41.745 15.5 352 15.5 102450 76
2004-06-29 07:24:36 51°20.636 2°41.713 15.3 347 15.5 102450 76
2004-06-29 07:24:40 51°20.641 2°41.692 14.5 346 15.5 102440 75
2004-06-29 07:24:45 51°20.649 2°41.667 14.6 340 15.5 102440 75
2004-06-29 07:24:49 51°20.655 2°41.647 14.7 342 15.4 102440 75
2004-06-29 07:24:56 51°20.668 2°41.613 14.3 338 15.4 102440 75
2004-06-29 07:25:00 51°20.676 2°41.595 14.1 338 15.4 102450 75
2004-06-29 07:25:05 51°20.688 2°41.573 13.9 339 15.4 102450 75
2004-06-29 07:25:10 51°20.7 2°41.553 13.7 337 15.4 102440 75
2004-06-29 07:25:15 51°20.713 2°41.533 12.8 338 15.4 102440 75
2004-06-29 07:25:18 51°20.721 2°41.522 13.7 336 15.4 102450 75
2004-06-29 07:25:25 51°20.74 2°41.498 12.9 333 15.4 102450 75
2004-06-29 07:25:30 51°20.755 2°41.48 12.9 332 15.4 102450 75
2004-06-29 07:25:35 51°20.77 2°41.466 14 323 15.4 102450 75
2004-06-29 07:25:40 51°20.786 2°41.452 13.7 325 15.4 102450 75
2004-06-29 07:25:46 51°20.807 2°41.439 12.4 319 15.4 102450 75
2004-06-29 07:25:50 51°20.82 2°41.432 12.3 320 15.4 102440 75
2004-06-29 07:25:56 51°20.842 2°41.422 11.4 322 15.4 102440 75
2004-06-29 07:26:00 51°20.856 2°41.416 10.9 317 15.4 102440 75
2004-06-29 07:26:05 51°20.874 2°41.41 11.1 321 15.4 102440 75
2004-06-29 07:26:10 51°20.892 2°41.403 11.5 319 15.4 102440 75
2004-06-29 07:26:14 51°20.907 2°41.398 11.8 315 15.4 102440 75
2004-06-29 07:26:20 51°20.929 2°41.391 12.8 318 15.4 102450 75
2004-06-29 07:26:25 51°20.947 2°41.385 12.9 44 15.4 102450 75
2004-06-29 07:26:30 51°20.965 2°41.379 12.2 43 15.4 102440 76
2004-06-29 07:26:35 51°20.984 2°41.374 11.4 316 15.4 102440 76
2004-06-29 07:26:38 51°20.995 2°41.37 11.2 228 15.4 102450 75
2004-06-29 07:26:45 51°21.021 2°41.362 9.9 314 15.4 102450 75
2004-06-29 07:26:50 51°21.039 2°41.359 11.2 318 15.4 102450 75
2004-06-29 07:26:56 51°21.062 2°41.355 11 227 15.4 102450 75
2004-06-29 07:27:00 51°21.077 2°41.354 11.3 227 15.4 102450 75
2004-06-29 07:27:05 51°21.096 2°41.352 11.6 312 15.4 102450 75
2004-06-29 07:27:10 51°21.114 2°41.351 10.9 315 15.4 102440 75
2004-06-29 07:27:16 51°21.137 2°41.351 11.3 313 15.4 102440 75
2004-06-29 07:27:20 51°21.152 2°41.35 10.2 309 15.4 102450 75
2004-06-29 07:27:23 51°21.163 2°41.35 9.6 310 15.4 102450 75
2004-06-29 07:27:30 51°21.189 2°41.349 10.8 311 15.4 102440 75
2004-06-29 07:27:34 51°21.204 2°41.348 10 228 15.4 102440 75
2004-06-29 07:27:40 51°21.227 2°41.347 10.5 310 15.4 102450 75
2004-06-29 07:27:45 51°21.246 2°41.347 9.3 315 15.4 102450 75
2004-06-29 07:27:50 51°21.264 2°41.347 10.9 313 15.4 102460 75
2004-06-29 07:27:54 51°21.279 2°41.347 10.5 312 15.4 102460 75
2004-06-29 07:28:00 51°21.302 2°41.348 10.1 312 15.4 102460 75
2004-06-29 07:28:05 51°21.321 2°41.347 10.7 310 15.4 102460 75
2004-06-29 07:28:10 51°21.34 2°41.348 10 311 15.4 102460 75
2004-06-29 07:28:14 51°21.355 2°41.347 9.8 310 15.4 102460 75
2004-06-29 07:28:20 51°21.378 2°41.347 9.4 313 15.4 102450 75
2004-06-29 07:28:25 51°21.397 2°41.346 9.7 313 15.4 102450 75
2004-06-29 07:28:30 51°21.416 2°41.346 11.2 313 15.4 102450 76
2004-06-29 07:28:36 51°21.439 2°41.346 10.4 312 15.4 102450 76
2004-06-29 07:28:40 51°21.454 2°41.345 11.1 311 15.4 102450 76
2004-06-29 07:28:45 51°21.473 2°41.345 10.5 310 15.4 102450 76
2004-06-29 07:28:50 51°21.492 2°41.345 10.4 309 15.4 102460 76
2004-06-29 07:28:56 51°21.515 2°41.344 9.4 230 15.4 102460 76
2004-06-29 07:29:00 51°21.53 2°41.345 9.7 314 15.4 102450 76
2004-06-29 07:29:05 51°21.549 2°41.344 9.4 312 15.4 102450 76
2004-06-29 07:29:10 51°21.568 2°41.345 11.9 314 15.4 102460 76
2004-06-29 07:29:14 51°21.583 2°41.344 11.1 308 15.4 102460 76
2004-06-29 07:29:20 51°21.606 2°41.344 10.6 311 15.4 102460 76
2004-06-29 07:29:25 51°21.625 2°41.343 9.7 314 15.4 102460 76
2004-06-29 07:29:30 51°21.644 2°41.344 10.1 310 15.4 102450 76
2004-06-29 07:29:36 51°21.666 2°41.343 10.9 312 15.4 102450 76
2004-06-29 07:29:40 51°21.681 2°41.343 10 41 15.4 102450 76
2004-06-29 07:29:45 51°21.7 2°41.343 9.4 314 15.4 102450 76
2004-06-29 07:29:49 51°21.715 2°41.343 10.9 314 15.4 102450 75
2004-06-29 07:29:55 51°21.738 2°41.343 9.9 313 15.4 102450 75
2004-06-29 07:30:00 51°21.757 2°41.344 8.7 312 15.4 102450 75
2004-06-29 07:30:05 51°21.775 2°41.343 8.6 311 15.4 102450 75
2004-06-29 07:30:09 51°21.79 2°41.344 10.3 309 15.4 102460 75
2004-06-29 07:30:15 51°21.813 2°41.343 8.8 310 15.4 102460 75
2004-06-29 07:30:21 51°21.836 2°41.345 8.6 315 15.3 102450 75
2004-06-29 07:30:26 51°21.855 2°41.343 10.2 310 15.3 102450 75
2004-06-29 07:30:29 51°21.866 2°41.344 10 308 15.4 102450 75
2004-06-29 07:30:35 51°21.888 2°41.345 11.1 311 15.4 102450 75
2004-06-29 07:30:40 51°21.907 2°41.344 10.6 309 15.4 102450 75
2004-06-29 07:30:45 51°21.926 2°41.346 11 304 15.4 102450 75
2004-06-29 07:30:49 51°21.941 2°41.345 10.7 308 15.4 102450 76
2004-06-29 07:30:55 51°21.964 2°41.346 9.3 307 15.4 102450 76
2004-06-29 07:31:00 51°21.983 2°41.345 10.6 309 15.4 102460 76
2004-06-29 07:31:05 51°22.002 2°41.346 10.7 305 15.4 102460 76
2004-06-29 07:31:10 51°22.02 2°41.345 10.3 310 15.4 102450 76
2004-06-29 07:31:13 51°22.032 2°41.346 11.3 310 15.4 102450 76
2004-06-29 07:31:20 51°22.058 2°41.347 11.1 309 15.4 102450 75
2004-06-29 07:31:25 51°22.077 2°41.348 10.5 303 15.4 102450 75
2004-06-29 07:31:29 51°22.092 2°41.348 10.1 303 15.3 102450 75
2004-06-29 07:31:32 51°22.103 2°41.349 10.3 304 15.3 102450 75
2004-06-29 07:31:40 51°22.134 2°41.349 9.8 303 15.4 102460 75
2004-06-29 07:31:45 51°22.153 2°41.35 10 312 15.4 102460 75
2004-06-29 07:31:49 51°22.168 2°41.349 10.8 314 15.3 102450 75
2004-06-29 07:31:55 51°22.191 2°41.35 10 306 15.3 102450 75
2004-06-29 07:32:00 51°22.209 2°41.349 10 304 15.4 102450 75
2004-06-29 07:32:05 51°22.228 2°41.35 11.7 308 15.4 102450 75
2004-06-29 07:32:10 51°22.247 2°41.349 10.8 306 15.4 102460 76
2004-06-29 07:32:15 51°22.266 2°41.35 9.3 308 15.4 102460 76
2004-06-29 07:32:20 51°22.285 2°41.349 10.8 309 15.4 102440 76
2004-06-29 07:32:25 51°22.304 2°41.35 10.7 304 15.4 102440 76
2004-06-29 07:32:30 51°22.323 2°41.349 9.5 308 15.4 102460 76
2004-06-29 07:32:36 51°22.346 2°41.35 10 307 15.4 102460 76
2004-06-29 07:32:40 51°22.361 2°41.349 9.2 312 15.4 102450 76
2004-06-29 07:32:45 51°22.38 2°41.351 10.8 307 15.4 102450 76
2004-06-29 07:32:50 51°22.4 2°41.351 10 310 15.4 102450 76
2004-06-29 07:32:56 51°22.422 2°41.352 10.4 313 15.4 102450 76
2004-06-29 07:33:00 51°22.438 2°41.351 10.4 312 15.4 102450 76
2004-06-29 07:33:05 51°22.457 2°41.352 11.5 311 15.4 102450 76
2004-06-29 07:33:09 51°22.472 2°41.351 9.8 313 15.4 102450 76
2004-06-29 07:33:15 51°22.495 2°41.351 10.1 227 15.4 102450 76
2004-06-29 07:33:20 51°22.514 2°41.352 10.8 230 15.4 102450 76
2004-06-29 07:33:25 51°22.533 2°41.353 11 305 15.4 102450 76
2004-06-29 07:33:30 51°22.552 2°41.353 11 314 15.4 102440 76
2004-06-29 07:33:36 51°22.575 2°41.355 9.9 306 15.4 102440 76
2004-06-29 07:33:40 51°22.59 2°41.354 11.2 310 15.4 102450 76
2004-06-29 07:33:45 51°22.609 2°41.355 10.9 307 15.4 102450 76
2004-06-29 07:33:49 51°22.624 2°41.354 10.9 308 15.4 102450 76
2004-06-29 07:33:54 51°22.643 2°41.355 9.6 312 15.4 102450 76
2004-06-29 07:34:00 51°22.665 2°41.355 10.7 313 15.4 102450 76
2004-06-29 07:34:04 51°22.681 2°41.356 10.3 313 15.4 102450 76
2004-06-29 07:34:10 51°22.703 2°41.356 11.5 313 15.4 102450 76
2004-06-29 07:34:16 51°22.726 2°41.356 9.9 310 15.4 102450 76
2004-06-29 07:34:20 51°22.742 2°41.357 10.4 312 15.4 102440 76
2004-06-29 07:34:25 51°22.761 2°41.356 10.4 315 15.4 102440 76
2004-06-29 07:34:30 51°22.78 2°41.357 10.9 313 15.4 102440 76
2004-06-29 07:34:35 51°22.799 2°41.356 11.6 309 15.4 102440 76
2004-06-29 07:34:40 51°22.818 2°41.356 10.2 311 15.4 102450 76
2004-06-29 07:34:45 51°22.837 2°41.356 10.3 315 15.4 102450 76
2004-06-29 07:34:49 51°22.852 2°41.357 11.4 305 15.4 102450 76
2004-06-29 07:34:55 51°22.875 2°41.357 10.5 311 15.4 102450 76
2004-06-29 07:35:00 51°22.894 2°41.357 9.8 310 15.4 102440 76
2004-06-29 07:35:05 51°22.913 2°41.357 10.4 311 15.4 102440 76
2004-06-29 07:35:09 51°22.928 2°41.358 11.7 309 15.4 102450 76
2004-06-29 07:35:15 51°22.951 2°41.359 10.4 309 15.4 102450 76
2004-06-29 07:35:20 51°22.971 2°41.36 9.5 306 15.4 102440 76
2004-06-29 07:35:24 51°22.986 2°41.359 10.9 309 15.4 102440 76
2004-06-29 07:35:30 51°23.009 2°41.36 11.3 307 15.4 102450 76
2004-06-29 07:35:36 51°23.032 2°41.359 9.4 312 15.4 102450 76
2004-06-29 07:35:40 51°23.047 2°41.36 9.6 308 15.4 102440 76
2004-06-29 07:35:45 51°23.066 2°41.359 9.9 311 15.4 102440 76
2004-06-29 07:35:49 51°23.081 2°41.361 10 313 15.5 102440 76
2004-06-29 07:35:56 51°23.108 2°41.361 11.1 314 15.5 102440 76
2004-06-29 07:36:00 51°23.124 2°41.362 10.7 311 15.4 102450 76
2004-06-29 07:36:05 51°23.143 2°41.362 11.1 310 15.4 102450 76
2004-06-29 07:36:10 51°23.162 2°41.362 10.9 311 15.4 102450 76
2004-06-29 07:36:22 51°23.208 2°41.363 11.5 313 15.4 102450 76
2004-06-29 07:36:28 51°23.231 2°41.364 11.1 307 15.4 102440 76
2004-06-29 07:36:32 51°23.246 2°41.363 11 311 15.4 102440 76
2004-06-29 07:36:37 51°23.265 2°41.364 11.7 306 15.4 102440 76
2004-06-29 07:36:42 51°23.284 2°41.363 11 308 15.4 102440 76
2004-06-29 07:36:46 51°23.299 2°41.364 10.9 310 15.4 102440 76
2004-06-29 07:36:53 51°23.325 2°41.365 11.5 312 15.4 102440 76
2004-06-29 07:36:57 51°23.34 2°41.365 11.7 311 15.4 102440 76
2004-06-29 07:37:02 51°23.359 2°41.365 10.6 309 15.4 102440 76
2004-06-29 07:37:08 51°23.382 2°41.367 11 308 15.4 102450 76
2004-06-29 07:37:12 51°23.397 2°41.368 10.9 312 15.4 102450 76
2004-06-29 07:37:17 51°23.416 2°41.368 10.8 308 15.4 102450 76
2004-06-29 07:37:22 51°23.435 2°41.37 10.4 307 15.4 102450 76
2004-06-29 07:37:26 51°23.45 2°41.369 10.2 307 15.4 102440 76
2004-06-29 07:37:32 51°23.473 2°41.369 8.7 314 15.4 102440 76
2004-06-29 07:37:37 51°23.492 2°41.37 12.2 311 15.4 102450 76
2004-06-29 07:37:40 51°23.503 2°41.369 11.2 228 15.4 102450 76
2004-06-29 07:37:48 51°23.533 2°41.367 11.1 228 15.4 102440 76
2004-06-29 07:37:50 51°23.541 2°41.365 11.6 228 15.4 102440 76
2004-06-29 07:37:56 51°23.563 2°41.361 11.6 311 15.4 102450 76
2004-06-29 07:38:00 51°23.578 2°41.357 11.7 311 15.4 102450 76
2004-06-29 07:38:07 51°23.604 2°41.35 11 43 15.4 102440 76
2004-06-29 07:38:12 51°23.622 2°41.344 11.6 44 15.4 102440 76
2004-06-29 07:38:16 51°23.637 2°41.339 11.6 316 15.4 102450 76
2004-06-29 07:38:22 51°23.658 2°41.33 12.2 43 15.4 102450 76
2004-06-29 07:38:26 51°23.673 2°41.325 12.3 314 15.4 102440 76
2004-06-29 07:38:32 51°23.695 2°41.317 12.1 42 15.4 102440 76
2004-06-29 07:38:37 51°23.713 2°41.311 11.9 228 15.4 102430 76
2004-06-29 07:38:42 51°23.732 2°41.304 11.8 315 15.4 102430 76
2004-06-29 07:38:47 51°23.75 2°41.298 11.6 229 15.4 102430 76
2004-06-29 07:38:49 51°23.757 2°41.295 12.3 226 15.4 102430 76
2004-06-29 07:38:57 51°23.787 2°41.284 12.9 43 15.4 102440 76
2004-06-29 07:39:00 51°23.797 2°41.28 13 313 15.4 102440 76
2004-06-29 07:39:07 51°23.823 2°41.27 10.9 314 15.4 102440 76
2004-06-29 07:39:12 51°23.841 2°41.264 11.2   15.4 102440 76
2004-06-29 07:39:17 51°23.859 2°41.258 11.8 314 15.4 102440 76
2004-06-29 07:39:30 51°23.907 2°41.242 11.1 42 15.4 102430 76
2004-06-29 07:39:36 51°23.929 2°41.235 10.4 315 15.4 102430 76
2004-06-29 07:39:40 51°23.944 2°41.23 11 321 15.4 102440 76
2004-06-29 07:39:45 51°23.962 2°41.223 4.4 316 15.4 102440 76
2004-06-29 07:39:50 51°23.981 2°41.217 12.1 43 15.4 102440 76
2004-06-29 07:39:54 51°23.995 2°41.211 11.2 315 15.4 102440 76
2004-06-29 07:40:00 51°24.018 2°41.205 12.5 315 15.4 102430 76
2004-06-29 07:40:05 51°24.036 2°41.199 11.7 317 15.4 102430 76
2004-06-29 07:40:10 51°24.054 2°41.193 11.1 317 15.4 102430 76
2004-06-29 07:40:16 51°24.076 2°41.186 11.9 316 15.4 102430 76
2004-06-29 07:40:20 51°24.09 2°41.182 9.9 314 15.4 102440 76
2004-06-29 07:40:25 51°24.109 2°41.176 11.5 311 15.4 102440 76
2004-06-29 07:40:29 51°24.124 2°41.171 12 316 15.4 102440 76
2004-06-29 07:40:34 51°24.142 2°41.165 11.4 40 15.4 102440 76
2004-06-29 07:40:40 51°24.164 2°41.158 11.4 321 15.3 102440 76
2004-06-29 07:40:44 51°24.178 2°41.152 11.9 315 15.3 102440 76
2004-06-29 07:40:50 51°24.2 2°41.146 12.7 227 15.4 102440 76
2004-06-29 07:40:55 51°24.219 2°41.14 11.8 318 15.4 102440 76
2004-06-29 07:41:00 51°24.237 2°41.134 10.8 312 15.3 102440 76
2004-06-29 07:41:05 51°24.255 2°41.129 12.2 227 15.3 102440 76
2004-06-29 07:41:10 51°24.274 2°41.123 10.6 227 15.4 102440 76
2004-06-29 07:41:15 51°24.292 2°41.116 12 229 15.4 102440 76
2004-06-29 07:41:20 51°24.31 2°41.11 10.3 313 15.4 102440 76
2004-06-29 07:41:25 51°24.329 2°41.104 10.8 313 15.4 102440 76
2004-06-29 07:41:30 51°24.347 2°41.098 11.8 316 15.4 102430 76
2004-06-29 07:41:34 51°24.362 2°41.093 10.1 229 15.4 102430 76
2004-06-29 07:41:40 51°24.384 2°41.086 11.6 318 15.4 102440 76
2004-06-29 07:41:45 51°24.402 2°41.079 11.6 318 15.4 102440 76
2004-06-29 07:41:50 51°24.421 2°41.073 11.4 318 15.4 102440 76
2004-06-29 07:41:55 51°24.439 2°41.067 12.3 316 15.4 102440 76
2004-06-29 07:42:01 51°24.461 2°41.06 12.1 315 15.4 102440 76
2004-06-29 07:42:05 51°24.476 2°41.055 12.6 227 15.4 102440 76
2004-06-29 07:42:10 51°24.494 2°41.048 12.5 316 15.4 102440 76
2004-06-29 07:42:15 51°24.512 2°41.043 11.1 313 15.4 102440 76
2004-06-29 07:42:20 51°24.53 2°41.036 11.6 228 15.4 102440 76
2004-06-29 07:42:23 51°24.542 2°41.034 11.6 316 15.4 102440 76
2004-06-29 07:42:30 51°24.567 2°41.024 11.4 318 15.4 102430 76
2004-06-29 07:42:36 51°24.589 2°41.018 10.9 232 15.4 102430 76
2004-06-29 07:42:40 51°24.604 2°41.012 12 315 15.4 102430 76
2004-06-29 07:42:45 51°24.622 2°41.006 12 313 15.4 102430 76
2004-06-29 07:42:50 51°24.641 2°41 10.4 314 15.3 102440 76
2004-06-29 07:42:56 51°24.663 2°40.993 9.8 325 15.3 102440 76
2004-06-29 07:43:00 51°24.678 2°40.989 10.9 321 15.3 102440 76
2004-06-29 07:43:05 51°24.696 2°40.982 11 322 15.3 102440 76
2004-06-29 07:43:09 51°24.711 2°40.979 11.1 317 15.3 102430 76
2004-06-29 07:43:16 51°24.737 2°40.97 10.4 322 15.3 102430 76
2004-06-29 07:43:20 51°24.752 2°40.966 10.9 40 15.4 102450 76
2004-06-29 07:43:25 51°24.77 2°40.959 11.2 318 15.4 102450 76
2004-06-29 07:43:29 51°24.785 2°40.955 11.7 44 15.4 102440 76
2004-06-29 07:43:36 51°24.811 2°40.946 10.5 227 15.4 102440 76
2004-06-29 07:43:40 51°24.825 2°40.941 12.3 228 15.4 102430 76
2004-06-29 07:43:45 51°24.844 2°40.936 11.1 316 15.4 102430 76
2004-06-29 07:43:50 51°24.862 2°40.929 11.2 318 15.4 102430 76
2004-06-29 07:43:55 51°24.881 2°40.924 12.1 313 15.4 102430 76
2004-06-29 07:44:00 51°24.899 2°40.916 11.4 317 15.3 102440 76
2004-06-29 07:44:03 51°24.91 2°40.913 10.1 318 15.3 102440 76
2004-06-29 07:44:09 51°24.932 2°40.906 11.2 317 15.3 102430 76
2004-06-29 07:44:16 51°24.958 2°40.898 11.5 230 15.3 102430 76
2004-06-29 07:44:20 51°24.972 2°40.892 11.4 314 15.3 102440 76
2004-06-29 07:44:25 51°24.991 2°40.887 10.6 43 15.3 102440 76